GFSNGP_250_rhum_135.txt.gz
RH
16 17 12 10 7 6 4 4 5 5 6 6 6 6 9 15 14 14 18 32 87 100 100 100 100 47 71 75 55 79 86 80 90 100 94 100 100 100 100 77 96 82 88 74
16 15 8 6 4 5 4 4 5 5 7 6 6 8 10 14 18 22 25 39 62 80 63 68 62 54 58 80 72 87 99 96 88 94 100 100 100 100 100 76 82 68 84 89
12 8 6 5 5 5 5 4 5 6 7 7 6 8 9 12 16 22 15 16 41 43 100 90 84 92 77 57 89 88 89 100 100 100 100 100 100 100 100 100 99 70 90 95
8 5 5 5 5 6 5 5 6 6 7 6 6 8 9 8 11 11 13 16 22 27 47 83 100 72 47 79 69 88 93 98 99 100 100 100 100 100 100 100 100 100 100 100
6 6 6 6 6 6 5 5 6 6 8 6 7 8 8 9 8 12 13 13 18 28 42 39 43 32 28 32 48 76 72 78 87 98 100 100 100 100 100 95 96 100 81 100
7 6 6 6 6 6 6 6 6 6 7 8 6 8 10 11 12 12 18 19 21 22 26 24 29 26 31 33 39 62 57 71 71 73 94 100 98 100 98 100 99 100 97 91
8 6 7 7 6 6 6 6 7 6 6 7 8 8 8 11 13 19 22 30 36 28 28 26 24 29 32 40 35 59 72 91 85 88 83 86 95 89 100 99 100 99 99 88
8 7 7 7 6 6 7 7 7 7 8 9 10 12 15 19 20 18 22 26 30 32 30 37 39 43 43 39 45 48 72 80 73 79 81 72 81 79 93 94 96 82 78 72
8 8 8 7 7 7 7 7 7 8 8 9 10 13 16 14 13 16 16 15 18 19 20 23 28 32 28 25 29 32 38 52 55 59 48 52 60 78 88 85 88 81 64 51
9 8 8 8 8 8 8 9 8 10 9 10 12 12 12 14 16 14 15 15 14 14 16 16 17 17 16 16 20 21 23 30 29 26 27 29 32 43 63 79 83 88 91 76
10 10 9 9 9 9 10 9 10 10 9 11 12 14 15 15 16 16 15 14 13 13 13 13 13 12 12 12 14 18 23 21 16 13 11 13 18 30 35 55 77 80 86 98
12 11 11 10 11 12 12 12 11 12 11 10 11 11 12 14 13 13 12 11 11 10 10 10 10 10 11 12 12 14 15 15 16 16 16 16 21 26 27 35 50 63 66 77
13 15 13 12 11 13 14 14 16 16 15 16 15 15 14 12 11 11 11 11 11 10 10 9 8 8 8 8 8 9 11 11 12 12 12 13 16 24 32 30 36 43 54 54
14 17 16 15 15 14 15 16 18 18 15 15 14 13 12 11 10 10 10 11 10 10 10 9 9 8 8 8 8 7 7 7 8 9 10 10 11 14 22 30 32 34 44 57
16 18 18 19 20 18 18 16 14 14 13 14 15 14 13 13 13 13 12 12 11 10 9 8 8 7 6 7 7 7 7 7 7 7 7 8 9 11 14 20 25 34 41 49
20 20 22 22 20 19 19 18 16 18 20 20 19 18 18 17 15 13 13 12 11 10 8 8 7 6 5 6 6 7 7 7 7 7 7 8 9 10 12 16 20 24 37 49
19 20 22 24 23 22 22 23 23 24 23 22 24 21 19 20 19 19 18 13 11 10 8 7 6 6 6 5 5 5 6 7 8 8 7 8 9 10 12 15 19 26 35 40
20 20 21 24 23 23 24 25 26 28 27 26 25 22 22 21 20 19 17 15 14 12 11 10 8 6 6 5 5 6 6 6 7 8 8 8 10 12 13 15 19 25 32 42
22 22 23 24 27 26 26 26 26 26 27 26 24 23 23 22 19 17 16 15 13 12 12 11 11 8 7 6 6 6 6 7 8 8 8 9 12 13 14 16 20 27 34 47
25 24 26 28 27 27 28 27 27 27 27 27 26 24 21 19 18 16 14 15 13 12 11 11 11 10 9 7 6 6 7 7 8 8 9 10 13 15 16 19 22 29 36 49
25 26 26 27 28 29 30 32 31 30 29 25 24 22 20 18 17 16 14 14 13 12 10 10 10 10 10 9 8 7 7 8 8 10 10 10 14 16 18 21 24 30 40 50
25 25 24 26 28 33 33 31 29 28 27 26 24 22 22 21 18 18 16 14 14 13 11 10 9 9 9 9 9 8 7 7 8 10 11 13 15 18 20 24 26 30 40 50
26 26 26 28 32 32 32 32 29 27 26 26 26 25 24 23 20 17 17 17 16 14 13 12 10 9 8 8 8 9 8 8 8 9 11 13 15 19 22 24 27 32 39 49
27 29 31 32 32 32 31 30 30 30 28 27 26 24 22 18 17 18 18 15 14 13 11 10 10 10 9 8 7 8 8 9 8 8 10 12 13 17 21 26 29 31 35 44
30 32 33 33 33 33 34 33 30 27 26 24 23 26 26 23 22 20 18 16 15 13 12 10 9 9 8 9 9 8 8 8 9 9 9 10 12 14 17 21 26 31 36 41
26 28 29 29 30 30 28 26 24 25 28 28 27 25 22 19 17 15 13 12 12 12 12 10 8 8 8 8 7 8 9 8 8 8 9 9 10 11 13 16 21 27 32 36
30 29 28 27 26 26 26 27 29 28 26 23 20 18 16 14 10 9 9 8 8 8 9 10 9 7 7 8 8 8 8 8 9 9 9 10 10 10 11 12 14 18 23 29

GFSNGP_250_rhum_138.txt.gz
RH
60 48 36 27 18 14 16 14 10 7 6 5 5 5 6 6 6 7 9 10 15 24 57 99 100 86 64 35 36 46 59 66 76 97 82 90 97 96 100 99 100 100 100 100
38 33 22 20 19 17 10 7 6 6 5 5 5 6 6 6 7 8 10 11 14 61 70 100 100 86 66 70 78 66 60 64 67 88 100 100 100 100 100 100 100 100 90 99
33 25 22 22 14 8 7 6 5 5 5 5 5 6 8 8 8 9 12 11 16 17 54 73 80 60 85 82 79 72 75 67 76 82 97 96 98 100 100 100 100 100 100 100
29 24 20 11 8 7 6 5 5 6 6 6 6 7 10 10 9 9 12 16 18 26 96 100 100 100 100 100 86 83 80 78 81 83 88 96 96 95 97 100 100 99 100 100
28 18 11 9 7 6 6 6 6 6 6 6 6 7 9 12 11 9 11 19 20 29 29 47 67 82 100 100 100 100 90 84 93 74 77 83 92 98 100 100 100 96 90 74
17 12 10 8 7 6 6 6 6 7 7 8 7 8 10 11 14 12 12 22 18 31 33 56 66 60 60 56 69 50 59 59 70 80 74 75 78 89 92 95 98 100 100 100
12 10 9 8 7 7 7 7 7 7 8 8 8 9 10 13 14 17 15 16 20 30 40 32 45 46 36 38 26 28 28 32 52 56 68 65 54 72 85 85 91 95 99 92
12 10 10 9 8 8 7 8 8 8 8 9 9 7 9 12 17 22 28 24 21 18 25 35 40 31 39 31 24 22 20 23 30 52 62 79 60 62 68 79 82 84 82 88
13 11 10 10 9 8 8 8 8 9 9 9 10 9 9 12 15 20 28 30 31 35 34 42 41 47 44 42 37 36 31 27 28 33 50 62 58 50 47 56 62 80 94 88
13 13 12 10 9 8 9 9 9 9 9 11 11 10 10 10 12 16 17 19 44 47 41 45 45 42 35 27 30 28 22 20 20 21 23 25 38 40 38 37 33 54 64 89
14 14 13 12 11 10 9 10 10 10 11 12 12 12 12 12 11 11 13 16 21 22 22 27 24 17 14 12 11 9 10 11 13 15 16 18 22 24 24 24 27 30 43 48
16 16 15 14 12 11 11 12 12 13 13 14 16 15 14 15 15 15 13 13 13 13 16 18 19 18 17 16 15 13 12 12 11 12 13 16 16 15 20 20 22 29 37 25
19 17 16 15 15 14 12 13 15 17 20 17 16 18 20 19 17 17 16 16 15 15 15 15 14 13 13 13 13 12 11 9 9 9 9 11 12 11 12 15 15 18 25 43
22 20 18 17 16 15 13 13 16 16 16 17 17 16 16 16 18 17 17 17 17 16 15 13 12 11 11 10 9 9 9 9 8 8 7 7 7 8 9 11 13 16 20 29
22 22 20 19 20 19 20 17 15 16 16 18 20 19 18 17 17 14 14 14 13 12 10 9 9 8 8 8 7 7 7 6 6 6 7 7 7 6 7 8 11 14 18 23
22 24 21 19 22 22 24 20 18 19 18 22 24 25 22 21 20 19 18 16 15 13 10 9 9 8 8 7 6 6 5 5 5 5 6 6 6 6 6 7 8 13 17 21
22 25 24 21 21 24 23 22 24 24 26 28 26 26 26 26 23 22 22 20 16 13 11 10 10 10 8 8 7 6 5 5 5 5 6 6 6 6 6 7 8 9 13 14
21 25 26 24 22 23 24 24 24 29 31 29 27 25 24 24 21 19 18 17 15 14 13 14 14 12 11 9 8 7 6 5 5 5 6 6 7 6 6 7 8 9 10 12
20 24 27 26 23 24 26 29 29 28 27 25 24 26 25 23 21 20 18 17 15 14 14 12 13 12 11 10 9 8 6 6 6 6 6 6 7 8 7 7 8 10 12 13
19 24 26 26 24 23 25 26 26 28 27 26 25 23 20 20 19 18 17 16 15 14 13 13 12 12 12 10 10 9 7 6 5 6 6 6 8 8 8 8 9 11 13 14
21 24 24 25 25 23 23 25 26 24 24 25 24 23 23 21 19 17 17 16 17 16 14 13 13 12 10 10 9 9 9 8 6 5 6 7 8 9 9 9 10 12 14 16
20 22 23 22 23 24 24 24 25 26 26 24 22 21 20 20 21 21 18 17 18 16 14 13 12 12 12 10 10 8 8 8 8 6 5 6 8 9 9 10 12 14 16 18
21 22 23 23 24 24 26 27 27 26 27 26 25 23 22 23 23 22 20 18 15 14 14 14 13 12 12 11 11 10 8 7 8 8 7 6 7 9 9 10 12 15 18 21
22 24 24 24 25 25 26 27 26 25 26 25 24 22 22 22 22 18 16 16 16 14 13 12 12 11 11 10 8 9 9 9 7 7 7 7 6 7 10 11 12 15 18 21
26 25 25 24 23 23 24 24 24 23 23 22 21 20 20 19 18 18 19 19 17 15 13 12 11 11 10 10 9 8 8 8 8 7 7 7 7 7 8 10 13 14 17 21
28 28 28 29 29 28 28 26 25 23 20 17 17 16 16 17 18 17 16 14 12 11 10 9 9 9 8 8 8 7 7 7 7 7 7 6 7 8 8 8 10 12 16 18
28 27 27 27 25 24 23 22 21 20 18 17 16 15 14 12 11 10 10 9 8 7 6 6 6 6 7 6 7 7 6 6 7 6 7 7 6 7 7 8 8 9 11 14

GFSNGP_250_rhum_144.txt.gz
RH
81 86 74 72 57 48 34 26 27 33 20 15 12 12 10 7 6 5 5 4 5 5 5 6 6 7 6 7 9 11 18 28 42 59 53 41 44 68 80 84 80 49 49 47
73 75 70 64 48 36 32 33 24 16 15 14 12 8 6 5 5 5 4 5 5 6 6 6 7 9 10 13 12 14 22 27 38 65 87 58 61 76 94 89 48 62 44 44
84 82 62 57 44 43 39 24 16 17 14 11 8 6 5 5 6 5 5 6 6 6 6 7 8 11 13 19 28 17 32 42 45 66 49 65 98 100 100 78 79 80 65 67
78 65 66 54 49 36 26 18 22 18 11 8 7 6 6 5 6 6 6 6 6 7 8 8 11 14 17 31 38 36 62 74 79 80 88 87 92 90 95 96 84 77 67 72
76 66 59 50 35 30 22 29 22 12 10 9 8 6 6 6 6 6 6 7 7 8 10 12 13 15 16 19 25 44 66 84 95 96 93 89 94 95 97 92 84 70 73 62
70 61 46 38 35 31 32 24 14 12 10 9 8 7 6 7 7 7 8 8 10 12 14 17 16 22 20 26 45 46 63 61 56 71 82 78 70 59 66 71 72 73 52 53
58 50 43 43 44 40 28 16 13 11 10 9 8 7 7 7 7 8 9 10 12 16 20 22 22 30 23 27 49 52 55 67 66 54 68 82 83 78 54 46 52 62 66 59
52 47 42 46 39 28 19 14 12 11 9 8 8 8 7 8 8 9 10 10 12 18 27 30 35 29 29 27 42 49 55 58 54 57 56 59 66 65 51 63 53 57 58 46
48 42 44 48 32 23 16 13 12 10 9 8 9 9 9 9 9 9 10 11 11 15 24 24 33 34 31 34 36 44 52 50 56 47 56 53 46 44 54 57 55 57 56 48
49 47 50 41 27 18 14 14 12 10 10 9 9 9 10 9 10 9 10 12 11 13 16 23 36 44 37 46 34 36 41 34 42 34 32 44 44 40 41 40 43 54 43 41
53 52 46 32 20 17 15 14 13 12 11 10 10 10 10 8 9 11 11 11 11 13 16 20 27 44 49 49 51 39 30 26 32 27 26 22 23 20 19 21 28 31 40 44
55 48 36 29 20 18 16 16 15 13 13 13 13 12 11 10 12 11 11 12 15 17 18 18 21 21 33 36 47 44 41 33 26 21 18 22 16 16 18 17 20 23 27 30
55 44 38 28 23 20 17 17 16 15 14 15 14 13 12 11 13 16 17 16 14 13 13 13 14 15 17 17 21 25 39 30 29 28 18 19 16 15 13 18 20 17 17 19
56 49 38 28 25 21 17 17 19 17 16 16 16 15 15 15 15 16 16 15 14 13 14 13 13 12 12 13 14 13 13 15 17 22 16 16 12 10 10 9 9 10 10 9
51 50 37 27 26 22 18 18 20 20 17 17 18 17 16 14 14 15 14 14 14 13 12 13 14 14 12 12 11 11 11 11 11 11 10 9 8 8 7 7 7 7 8 8
52 48 33 26 23 21 16 16 20 22 20 17 18 19 19 18 15 15 15 14 12 12 12 12 12 12 12 11 12 11 10 10 9 8 7 6 6 6 5 5 5 5 6 6
51 37 27 25 19 16 15 15 17 20 21 18 17 18 19 19 18 16 14 15 15 14 14 13 13 14 15 14 13 12 12 11 10 9 9 8 6 5 5 5 4 4 4 5
38 28 23 19 14 12 12 12 15 18 20 18 16 16 18 18 18 17 16 16 17 16 15 15 15 14 13 13 13 12 12 11 11 10 9 8 7 6 5 5 5 4 4 5
23 20 15 12 10 10 11 11 14 16 18 19 17 17 18 18 19 17 16 15 14 15 15 16 15 15 14 13 12 12 12 11 10 10 9 8 8 7 6 5 5 4 4 4
16 12 9 9 9 10 11 13 14 17 19 20 20 19 19 19 18 18 16 14 14 13 14 15 16 15 14 13 12 11 10 10 9 8 8 8 8 8 7 6 5 4 4 4
12 9 9 9 10 11 12 14 16 18 19 19 18 18 18 18 16 15 14 12 13 13 12 12 12 12 12 12 12 12 11 10 10 9 9 8 6 6 7 7 6 4 4 4
10 9 12 12 12 14 15 16 18 19 20 20 19 18 18 18 17 16 14 13 12 12 13 14 13 12 12 12 12 12 12 10 10 10 9 8 8 7 6 6 6 5 4 4
12 13 14 15 16 18 20 21 22 22 22 22 22 21 19 17 15 14 14 13 12 11 11 10 10 10 11 11 11 11 10 10 9 9 8 8 7 7 6 6 6 6 5 4
19 21 22 22 22 22 24 24 24 24 23 22 20 19 18 16 14 11 10 9 9 9 8 8 8 8 8 8 8 8 8 8 8 8 8 7 7 7 7 6 6 6 6 5
26 27 27 28 30 32 31 30 29 27 25 23 19 15 12 9 8 7 7 6 6 6 6 6 6 6 6 6 6 6 6 6 7 7 7 7 6 6 6 6 6 6 6 6
34 33 35 38 38 37 34 32 28 24 21 17 13 10 8 7 6 6 5 5 4 4 4 4 4 4 4 4 5 5 6 6 5 6 6 6 5 6 6 6 6 6 6 6
43 45 44 39 37 37 32 25 20 16 14 10 7 6 5 5 5 4 4 4 4 4 4 4 4 3 4 4 4 3 3 4 4 4 4 4 4 4 5 5 6 6 6 6

GFSNGP_250_rhum_147.txt.gz
RH
56 69 67 49 51 58 60 56 47 44 42 33 24 21 24 16 11 10 10 9 7 6 5 6 6 6 5 5 6 6 6 7 9 18 48 100 74 88 80 83 78 94 82 60
76 71 76 74 65 66 64 58 57 49 39 23 24 19 13 15 14 9 6 5 5 5 5 5 5 6 6 6 6 7 8 9 10 16 38 62 68 100 80 97 81 72 87 60
83 91 95 87 87 80 71 62 51 33 29 28 18 15 15 11 7 6 5 5 5 5 5 5 5 6 6 7 9 9 12 16 17 35 82 77 100 100 76 86 72 60 84 88
98 100 99 98 84 75 70 49 37 35 25 18 20 19 10 7 6 5 5 5 5 5 6 5 6 6 9 12 17 20 17 25 29 43 50 87 100 100 94 80 75 93 96 99
100 100 99 98 87 69 50 45 34 24 22 25 19 12 9 7 6 5 5 5 6 6 6 6 7 7 13 18 30 36 33 22 26 38 56 73 92 100 100 99 100 100 84 65
100 100 94 92 70 53 45 35 30 30 30 20 12 10 8 7 6 6 6 6 7 6 7 7 8 10 16 20 49 48 40 29 29 47 79 79 89 94 100 100 99 100 100 83
100 99 97 72 60 47 38 35 42 36 21 15 12 10 9 8 6 6 6 6 8 8 9 8 10 12 16 25 44 54 46 40 28 26 47 74 98 100 100 100 100 100 95 60
100 90 84 62 48 44 40 43 42 27 18 14 12 10 10 8 7 7 7 8 9 9 10 10 11 17 22 24 37 51 47 52 48 43 50 54 90 100 100 95 99 85 77 78
96 84 60 50 50 49 51 47 32 21 16 14 13 11 10 9 8 8 8 8 9 10 11 11 10 15 23 32 32 40 48 54 56 54 44 41 52 66 74 80 91 92 85 68
78 58 50 52 52 54 55 40 24 17 16 14 14 12 12 10 10 9 9 9 10 10 11 13 12 15 22 32 42 42 39 41 31 34 41 39 53 52 42 52 69 66 66 57
57 52 56 53 54 62 50 29 21 18 17 15 15 13 13 13 11 11 10 9 9 11 12 12 13 13 15 22 37 50 46 51 42 40 36 37 32 30 30 43 45 41 39 40
55 53 56 58 60 59 43 26 21 21 18 17 17 16 14 14 13 13 14 12 12 11 10 10 10 10 12 14 18 31 38 51 51 52 35 33 30 23 22 22 23 27 29 33
56 56 58 60 60 52 46 29 22 22 18 17 19 17 15 16 15 13 14 13 13 13 13 12 10 10 11 11 11 13 18 24 29 37 36 31 24 23 28 28 27 28 29 31
60 56 59 64 53 53 42 29 22 21 18 16 18 18 16 16 16 16 14 13 14 14 13 12 14 13 12 11 12 11 12 12 12 12 11 11 12 14 21 18 23 28 22 18
59 61 65 60 54 47 37 26 22 19 17 14 15 18 17 16 18 18 17 15 14 14 14 13 13 12 11 11 10 11 10 10 10 11 10 10 10 11 10 9 10 9 9 10
67 65 56 52 44 29 24 22 21 18 15 12 13 16 18 16 16 17 17 16 16 16 15 14 13 12 11 11 10 11 10 9 9 9 9 9 8 8 8 8 7 7 7 7
67 55 50 36 26 23 22 18 15 13 12 11 11 14 18 19 16 16 17 16 16 15 15 15 15 16 15 14 13 12 11 10 10 8 7 7 6 6 6 6 6 5 6 6
58 47 30 24 23 18 13 10 10 10 10 10 11 14 17 19 18 16 16 16 15 14 14 14 14 15 15 16 16 15 13 12 11 11 10 9 8 8 7 6 5 5 5 4
42 26 23 18 12 9 9 9 9 9 10 10 12 15 18 18 16 15 15 15 15 15 15 13 12 12 11 11 11 11 12 11 11 11 11 10 9 9 9 8 8 8 7 6
26 22 16 11 9 9 9 10 11 11 12 12 14 16 17 17 17 17 16 15 14 13 13 13 12 12 11 10 10 10 10 10 10 10 9 9 9 8 8 8 8 8 8 8
22 14 12 12 11 11 11 13 14 15 16 17 18 18 18 17 16 16 15 14 13 12 12 11 11 11 10 11 12 11 11 10 9 9 9 9 9 9 8 8 7 6 7 7
15 14 14 15 15 16 18 19 20 20 20 20 19 19 19 18 16 15 13 12 11 10 10 9 8 8 8 8 8 8 9 9 9 8 8 8 8 8 8 7 7 7 6 6
17 18 17 20 22 23 23 22 22 23 22 22 21 20 19 17 14 12 10 9 8 8 8 7 7 6 6 6 6 6 6 7 7 7 7 6 6 6 7 7 7 6 6 6
20 23 28 28 26 25 27 30 31 30 31 28 24 20 17 13 11 9 8 6 6 5 5 4 5 5 4 4 4 4 4 4 4 5 4 5 5 5 5 5 5 6 6 6
25 29 30 30 33 35 36 36 34 30 26 22 18 15 10 7 6 5 5 5 4 4 4 4 4 4 3 3 3 3 3 4 3 3 3 3 4 4 4 4 4 4 5 5
33 37 40 40 40 40 40 35 31 26 20 16 14 11 8 6 5 4 4 4 3 3 3 3 3 3 3 3 3 3 3 3 3 3 3 4 3 3 3 4 4 4 4 4
40 44 45 43 44 42 37 36 34 29 22 15 11 8 6 5 4 4 3 3 3 3 2 2 2 2 3 3 3 3 3 2 3 3 3 3 3 3 4 4 4 4 4 4